Lapse_Rate
7.9 7.8 7.5 7.2 7.4 7.3 6.2 5.5 5.6 5.9 6.2 6.6 7.0 6.7 6.3 6.1 5.8 5.5 5.3 5.1 4.8 4.4 4.6 4.4 4.5 5.0 5.3 5.5 5.4 5.6 5.7 5.4 5.5 5.4 5.3 5.1 4.9 4.9 5.0 5.0 5.4 5.5 5.7 5.6 5.6 5.4 5.0 5.5 5.9 6.0 6.1 6.0 6.0 6.1
7.9 8.0 7.8 7.3 7.4 7.6 6.7 5.9 6.0 6.0 6.1 6.7 6.9 6.6 6.8 6.3 5.7 5.7 5.5 5.0 4.9 4.6 4.6 4.6 4.7 5.0 5.0 5.3 5.6 5.4 5.7 6.0 6.1 5.5 5.4 5.4 5.1 4.8 5.2 4.9 5.2 5.3 5.5 5.9 5.7 5.6 5.7 5.8 5.9 6.0 6.3 6.0 5.9 5.9
7.7 8.0 8.1 7.6 7.6 7.9 7.9 6.4 6.2 6.0 6.4 6.4 6.7 7.0 6.8 6.6 6.4 6.0 5.5 5.4 5.1 4.9 4.9 4.9 4.8 4.8 4.7 5.0 5.5 5.5 5.6 5.5 5.8 5.9 5.6 5.5 5.4 5.4 5.3 5.3 5.5 5.4 5.6 5.6 5.7 5.4 5.6 5.6 5.9 6.0 5.8 6.0 5.9 5.8
7.7 8.0 8.1 8.1 7.8 7.9 8.1 7.7 6.5 6.4 6.6 6.7 6.6 6.9 7.0 6.8 6.5 6.2 5.8 5.7 5.1 5.3 5.2 4.9 4.9 4.7 4.6 4.8 5.1 5.3 5.5 5.6 5.6 5.7 5.8 5.6 5.6 5.5 5.3 5.2 5.2 5.3 5.3 5.5 5.6 5.6 5.9 5.9 6.0 6.1 5.9 6.0 6.0 5.9
7.8 7.9 8.1 8.2 7.9 7.8 8.4 8.1 7.5 6.8 6.6 6.7 7.0 6.7 6.9 6.8 6.8 6.3 6.1 5.8 5.6 5.5 5.3 4.9 4.8 4.8 4.9 5.0 5.2 5.3 5.3 5.5 5.7 5.9 6.0 5.9 5.6 5.6 5.4 5.1 4.9 5.2 5.6 5.8 5.8 6.2 6.2 6.0 6.1 6.2 6.2 6.3 6.0 5.8
7.5 7.6 7.9 7.7 8.2 8.4 8.1 8.3 7.5 7.5 7.0 6.9 6.6 7.0 7.0 6.9 6.5 6.4 6.6 6.3 6.0 5.6 5.3 4.9 4.9 4.8 4.8 4.9 5.0 5.3 5.3 5.4 5.5 5.4 5.8 5.8 5.6 5.7 5.4 5.0 5.2 5.3 5.4 5.7 5.8 5.8 5.8 5.8 6.0 6.3 6.4 6.3 6.1 6.0
7.3 7.2 7.3 7.3 7.5 7.6 7.5 7.3 7.2 7.0 7.1 6.9 7.0 6.9 6.9 6.8 6.7 6.9 6.5 6.6 6.3 6.1 5.8 5.7 5.7 5.6 5.7 5.7 5.7 5.9 6.1 5.9 5.9 5.8 5.7 5.7 5.7 5.6 5.5 5.4 5.8 5.3 5.9 6.2 5.8 5.4 5.7 6.2 6.3 6.1 6.0 5.9 5.8 5.7
7.0 6.7 6.6 6.7 7.1 6.8 6.8 6.7 6.9 7.1 7.0 6.8 6.8 6.9 7.1 6.7 6.4 6.8 6.8 6.9 6.7 6.7 6.5 6.3 6.2 6.0 5.9 6.0 6.0 6.0 6.2 6.3 6.4 6.3 6.4 6.4 6.3 5.9 5.4 6.0 6.2 6.0 6.0 6.0 5.6 5.7 6.4 6.5 6.4 6.4 6.2 6.1 6.0 6.0
6.7 6.6 6.7 6.8 6.9 6.9 6.8 6.7 6.8 6.9 6.9 6.5 6.9 6.9 6.6 6.4 6.7 6.8 6.5 6.7 6.8 6.8 6.6 6.4 6.1 6.4 6.6 6.3 6.2 6.2 6.2 6.2 6.2 6.4 6.5 6.2 6.1 5.9 6.7 7.0 6.9 6.7 6.6 6.2 5.8 6.1 6.3 6.6 6.8 6.8 6.7 6.4 6.2 6.1
6.9 6.8 6.7 6.7 6.8 6.8 6.8 6.7 6.7 6.7 6.8 6.8 6.9 6.8 6.7 6.1 6.5 6.5 6.1 6.3 6.5 6.6 6.7 6.6 6.7 6.6 6.6 6.6 6.3 6.3 6.2 6.2 6.0 6.5 6.5 6.5 6.9 7.8 7.7 7.5 7.3 7.3 7.1 6.3 6.2 6.3 6.7 6.7 6.9 6.9 6.5 6.4 6.2 6.2
6.8 6.8 6.8 6.8 7.0 7.0 6.7 6.9 6.9 6.9 6.7 6.7 6.2 6.0 5.9 5.7 5.9 6.0 5.9 6.4 6.5 6.6 6.6 6.6 6.6 6.5 6.5 6.5 6.5 6.2 6.0 6.3 6.4 6.6 6.4 6.6 7.4 7.9 7.5 7.3 7.2 6.7 6.5 6.5 6.5 6.1 6.2 6.9 7.2 6.8 6.3 6.0 6.1 6.1
6.8 6.7 6.6 6.8 6.9 6.9 6.8 6.8 6.7 6.8 7.1 6.8 6.3 5.7 5.5 5.7 6.0 6.0 6.1 6.6 6.6 6.7 7.0 7.0 6.8 6.6 6.5 6.2 6.3 6.4 6.5 6.7 6.8 6.4 6.3 6.7 8.1 7.4 7.3 7.2 6.9 6.4 6.2 6.0 6.0 6.0 6.0 6.0 6.3 6.1 5.8 5.9 6.0 6.0
6.8 6.5 6.5 6.6 6.8 6.8 6.8 6.9 6.7 6.8 6.5 6.1 5.9 5.6 5.7 5.6 5.9 6.2 6.5 6.7 7.1 7.3 7.2 7.3 6.9 6.5 6.6 6.5 6.3 6.5 6.6 6.5 6.3 6.3 6.5 7.6 7.3 7.1 7.5 7.8 7.2 6.8 6.5 6.4 6.4 6.2 6.0 5.8 5.7 5.7 5.7 5.9 6.0 5.9
6.8 6.7 6.4 6.5 6.7 6.8 6.7 6.5 6.5 6.3 6.2 6.0 5.9 5.7 5.9 6.1 6.8 7.2 7.3 7.2 7.3 7.2 7.2 7.2 7.7 7.4 6.8 6.6 6.7 6.9 6.9 6.4 6.3 6.2 6.9 7.3 7.7 7.7 7.8 7.9 7.7 7.2 6.6 6.3 6.2 6.0 5.8 5.6 5.6 5.6 5.6 6.2 6.3 6.3
7.0 6.9 7.0 6.9 6.7 6.7 6.7 6.7 6.7 6.5 6.4 6.2 6.1 6.2 6.6 7.1 7.3 7.5 7.6 7.4 7.6 7.6 7.7 7.6 7.6 7.7 7.0 7.1 7.1 6.8 6.5 6.6 6.7 6.9 7.2 7.8 7.8 7.7 7.7 7.6 7.5 7.1 6.7 6.3 6.1 6.0 5.9 5.8 6.0 6.3 6.1 6.0 6.2 6.4
7.1 6.9 7.1 7.1 7.0 6.9 6.8 6.7 6.7 6.8 6.5 6.6 6.5 6.7 6.9 7.0 7.3 7.4 7.4 7.5 7.6 7.6 7.4 7.5 7.4 7.4 7.3 7.1 6.9 6.9 6.8 6.9 7.3 7.7 7.8 8.3 8.3 7.7 7.9 7.8 7.5 7.1 6.8 6.7 6.7 6.7 6.9 6.8 6.4 6.3 6.3 6.3 6.2 5.9
7.0 7.0 7.0 7.0 7.1 6.7 6.7 6.8 6.8 6.8 6.8 6.7 6.6 6.8 7.0 7.1 7.5 7.8 7.8 7.9 8.0 7.8 7.7 7.4 7.5 7.7 7.6 7.4 7.3 7.3 7.6 8.7 8.8 8.6 8.5 8.6 8.1 7.7 7.4 7.1 7.1 6.9 7.0 7.0 7.1 6.9 7.0 7.1 7.1 7.0 6.7 6.4 6.3 6.3
7.3 7.1 6.9 6.9 7.0 6.7 6.7 6.6 6.5 6.4 6.3 6.3 6.5 6.8 7.2 7.6 7.9 8.2 8.1 7.9 7.9 7.7 7.9 7.8 7.9 7.9 7.9 8.1 8.0 8.5 8.7 8.7 8.5 8.3 8.2 7.9 8.0 7.9 7.3 7.3 7.5 7.5 7.3 7.5 7.5 7.2 7.2 7.2 7.0 6.7 6.6 6.6 6.5 6.5
6.8 6.9 7.0 6.9 6.9 6.7 6.0 6.0 6.2 6.1 6.4 6.8 7.1 7.0 7.0 7.1 7.2 7.4 7.7 8.0 8.3 8.5 8.4 7.8 7.6 7.8 8.1 8.6 8.8 8.6 8.4 8.6 8.7 8.3 8.0 7.9 8.1 8.0 7.6 7.5 7.5 7.5 7.6 7.6 7.6 7.4 7.2 7.1 6.9 6.8 6.6 6.6 6.6 6.6
6.9 7.0 7.0 6.9 6.9 6.6 6.4 6.3 6.3 6.7 6.8 6.9 7.1 7.2 7.5 7.6 7.8 8.0 8.4 8.3 8.3 8.1 7.4 7.5 8.1 8.8 8.6 8.4 8.7 8.4 8.4 8.3 8.4 8.1 8.1 8.1 8.0 8.0 7.8 7.4 7.4 7.4 7.7 7.7 7.4 7.3 7.3 7.2 7.1 7.0 6.9 6.8 6.8 6.8
6.8 6.9 7.1 7.2 6.9 6.9 6.8 7.0 6.9 6.8 6.9 7.0 7.4 7.8 8.1 8.3 8.4 8.7 8.8 8.7 8.5 8.4 8.3 8.4 8.6 8.6 8.5 8.5 8.8 8.6 8.1 8.1 8.0 8.1 8.0 7.8 8.0 8.1 8.0 7.6 7.1 7.2 7.4 7.4 7.4 7.4 7.4 7.4 7.5 7.3 7.2 7.1 7.0 6.7
7.0 7.0 6.6 6.7 7.1 7.0 6.7 6.4 6.8 7.0 7.3 7.4 7.4 7.5 7.6 7.9 8.1 8.3 8.3 8.3 8.3 8.5 8.6 8.7 8.8 8.7 8.6 8.9 8.7 8.4 8.4 8.3 7.8 7.6 7.5 7.6 8.0 8.2 8.2 7.9 7.7 7.7 7.6 7.5 7.6 7.7 7.6 7.4 7.4 7.3 7.3 7.3 7.3 7.1
7.1 6.9 6.8 6.6 6.6 6.9 7.2 7.3 7.4 7.7 7.6 7.7 7.6 7.6 7.8 7.9 7.8 8.0 7.7 8.1 8.4 8.5 8.5 8.5 8.7 8.7 8.8 8.8 8.6 8.2 8.1 8.1 7.9 7.7 7.8 7.8 7.9 7.8 8.0 8.0 8.0 7.8 7.8 7.7 7.7 7.6 7.5 7.6 7.5 7.6 7.6 7.6 7.5 7.4
7.4 7.0 6.7 6.7 6.6 6.8 6.9 7.1 7.2 7.3 7.6 7.7 7.8 7.9 8.0 7.9 7.7 8.1 8.5 8.8 8.8 8.8 8.5 8.6 8.5 8.3 8.1 8.1 8.3 8.3 8.1 7.8 7.6 7.4 7.3 7.2 7.3 7.8 7.8 7.8 7.7 7.6 7.7 7.7 7.7 7.6 7.7 7.7 7.7 7.6 7.6 7.5 7.4 7.3
7.4 7.2 7.3 7.2 7.1 7.1 7.0 7.2 7.1 7.2 7.2 7.2 7.4 7.5 7.6 7.8 7.8 7.9 8.1 8.3 8.4 8.6 8.7 8.6 8.4 8.2 8.0 8.1 8.1 8.1 8.2 7.9 7.5 7.2 7.3 7.2 7.1 7.4 7.5 7.6 7.7 7.6 7.7 7.7 7.7 7.7 7.7 7.6 7.6 7.6 7.5 7.4 7.2 6.9
7.8 7.4 7.5 7.3 7.4 7.5 7.5 7.5 7.3 7.1 7.2 7.4 7.4 7.4 7.6 7.7 7.6 7.6 8.3 8.8 8.8 8.2 8.2 8.2 8.4 8.4 8.4 8.2 8.1 8.2 8.3 8.0 7.6 7.3 7.7 7.6 7.2 7.2 7.4 7.5 7.6 7.6 7.7 7.8 7.8 7.7 7.7 7.7 7.6 7.6 7.4 7.3 7.0 6.5
7.6 7.6 7.7 7.6 7.7 7.6 7.6 7.6 7.9 8.1 7.6 7.6 7.8 7.6 7.5 7.4 7.3 7.9 8.7 8.8 8.7 8.5 8.6 8.5 8.4 8.5 8.4 8.2 8.0 8.0 8.0 8.1 7.7 7.9 8.0 7.8 7.8 7.7 7.7 7.7 7.8 7.7 7.7 7.9 7.8 7.6 7.6 7.7 7.6 7.5 7.3 7.1 6.7 6.1
7.6 7.7 8.0 7.9 7.9 7.8 7.7 7.8 7.9 8.0 7.9 7.9 8.1 7.8 7.7 7.7 8.2 8.7 8.8 8.8 8.4 8.2 8.3 8.3 8.1 7.9 7.8 7.9 7.9 8.0 8.1 8.1 8.0 8.2 8.3 8.2 8.2 8.1 8.1 8.0 7.9 7.9 7.9 7.9 7.8 7.8 7.8 7.7 7.5 7.4 7.3 6.9 6.5 6.3
7.8 7.9 7.8 7.6 7.6 7.8 7.6 7.6 7.8 7.9 8.1 8.3 8.6 8.6 8.6 8.5 8.6 8.4 8.5 8.4 8.1 8.2 8.0 7.7 7.6 7.5 7.7 7.9 7.9 8.1 8.3 8.2 8.2 8.3 8.4 8.3 8.2 8.1 8.1 8.2 8.2 8.1 8.1 7.9 7.8 7.7 7.6 7.4 7.3 7.2 7.0 6.7 6.4 6.0
7.7 7.9 7.6 7.7 7.6 7.7 7.9 8.1 8.3 8.3 8.3 8.4 8.4 8.4 8.4 8.2 8.2 8.2 8.2 8.2 7.9 7.6 7.8 7.8 7.8 8.0 8.1 8.0 8.1 8.0 8.1 8.2 8.3 8.4 8.4 8.3 8.2 8.2 8.1 8.1 8.1 8.1 8.1 7.9 7.7 7.4 7.2 7.1 7.2 6.9 6.6 6.2 6.0 5.6
7.6 7.6 7.8 8.1 8.1 7.9 8.1 8.0 8.1 8.2 8.2 8.0 8.0 8.1 8.2 8.5 8.4 8.2 8.1 7.9 7.8 7.6 7.8 8.0 8.1 8.2 8.3 8.1 8.1 8.0 8.0 8.1 8.2 8.2 8.1 8.0 7.8 7.8 7.8 7.7 7.7 7.7 7.6 7.3 6.9 6.9 6.7 6.9 6.7 6.4 6.1 5.7 5.4 5.3
8.0 8.0 8.0 8.1 8.0 7.9 7.9 8.2 8.3 8.3 8.1 8.0 8.1 8.1 8.2 8.4 8.5 8.4 8.1 7.9 7.9 7.8 7.8 7.8 8.0 8.1 8.1 8.1 8.1 8.1 8.0 8.0 7.9 7.9 7.7 7.6 7.6 7.4 7.3 7.2 7.2 6.9 6.9 6.7 6.5 6.5 6.5 6.4 6.2 5.7 5.5 5.4 5.4 5.5
8.1 8.3 8.3 8.3 8.3 8.3 8.3 8.2 8.2 8.0 8.0 8.2 8.2 8.2 8.1 8.1 8.0 8.0 8.1 8.0 7.9 7.9 7.9 8.0 8.0 8.0 8.0 8.0 7.9 7.9 7.9 7.9 7.8 7.7 7.6 7.5 7.3 7.0 6.9 6.7 6.7 6.4 6.5 6.3 6.1 6.2 6.1 5.8 5.5 5.5 5.5 5.5 5.5 5.4
Wind_Speed
19 16 16 15 15 17 16 16 15 22 24 33 34 36 36 37 26 7 2 1 5 3 0 1 1 5 4 3 5 4 4 3 3 4 3 3 3 5 4 4 7 7 5 4 2 2 11 6 2 7 7 3 3 4
19 19 15 16 14 16 15 18 17 23 27 33 35 36 38 38 28 14 4 2 3 5 3 2 3 3 3 5 5 1 3 2 5 4 2 3 3 1 5 4 1 3 6 5 8 6 3 5 7 5 4 5 4 4
19 19 17 15 15 19 19 21 19 24 29 35 35 38 39 38 30 11 4 4 4 3 3 3 2 5 3 3 1 4 1 2 1 2 3 2 3 4 4 5 5 3 4 4 1 5 8 7 5 6 6 7 5 7
18 20 16 17 18 20 22 22 24 28 31 35 36 39 40 36 26 16 5 2 6 4 3 3 2 1 5 4 2 3 7 4 4 1 3 2 2 3 4 3 5 5 6 6 5 6 7 8 8 9 8 8 7 5
18 18 15 19 25 24 23 29 31 32 33 34 37 40 42 36 25 16 5 2 4 5 4 2 3 1 3 3 6 5 6 5 3 3 2 2 2 1 1 2 3 5 7 5 7 8 6 7 4 4 7 8 7 6
17 15 17 24 22 27 31 32 31 36 33 34 36 40 41 38 33 10 3 2 3 4 4 2 3 3 5 2 5 5 4 3 3 3 0 2 1 0 1 4 4 6 4 7 6 6 6 5 6 3 3 6 6 8
15 14 20 21 27 24 30 30 33 36 37 37 39 41 42 37 14 8 7 5 11 3 3 2 2 3 2 4 3 2 3 1 3 3 3 4 2 2 2 6 2 6 7 4 6 2 5 4 6 7 6 5 2 4
9 14 24 22 25 27 28 28 41 39 37 38 40 42 39 29 17 4 4 15 12 5 3 3 2 3 1 2 1 1 2 2 1 3 1 2 1 3 5 8 5 8 8 6 9 9 10 4 4 7 5 3 6 8
9 16 8 10 26 26 29 31 36 38 38 38 42 41 14 4 3 4 18 20 12 4 4 3 5 3 1 2 2 2 2 1 1 2 2 4 2 6 9 8 8 10 8 9 9 8 5 9 12 10 8 7 8 9
5 9 3 17 28 31 34 39 42 43 43 42 20 5 3 3 27 12 7 3 4 3 3 3 2 4 3 2 2 2 2 1 1 4 2 3 4 17 9 8 10 12 12 10 8 13 14 7 8 7 9 8 8 7
4 5 9 24 33 37 38 44 47 44 31 5 3 3 11 13 3 3 3 3 2 2 2 3 3 7 1 3 3 1 2 1 2 4 4 3 5 5 11 15 17 16 13 14 13 9 4 6 6 8 8 9 9 10
9 7 16 33 32 32 43 42 37 14 3 8 12 7 3 3 3 5 3 2 3 6 4 5 4 4 3 3 3 2 3 1 5 2 1 4 4 8 4 8 8 8 10 12 12 13 10 9 8 9 8 9 9 9
12 10 23 29 32 35 34 26 24 35 29 10 5 4 3 2 4 6 9 3 3 4 5 4 4 4 3 3 3 3 4 5 2 1 4 5 4 6 6 3 5 6 6 7 8 7 8 9 7 8 9 8 7 7
16 15 26 30 31 28 33 34 27 21 6 4 4 6 4 3 4 3 4 5 4 6 10 8 4 4 3 3 3 5 4 3 3 4 5 3 7 7 2 3 2 5 5 7 9 7 8 8 8 6 6 5 3 7
18 23 29 28 28 31 28 18 13 4 3 3 3 4 4 3 3 4 4 5 2 9 10 4 4 3 2 4 4 3 4 5 5 4 3 5 6 6 6 4 4 5 5 6 5 6 6 5 6 5 3 4 5 4
23 22 18 29 27 27 18 13 6 3 3 3 3 4 2 4 2 3 2 5 3 9 3 3 3 3 3 5 5 7 5 6 4 4 4 3 4 5 6 4 5 5 7 7 6 6 5 5 5 3 1 3 3 1
14 2 28 27 25 22 17 5 4 5 3 3 2 3 2 3 4 3 3 4 8 10 4 3 6 6 3 4 4 5 6 5 3 4 4 4 2 7 6 6 7 7 7 6 4 3 2 3 3 1 2 1 1 1
4 18 29 28 16 9 3 3 3 4 4 1 3 2 1 2 4 3 3 8 5 4 4 4 4 3 5 6 4 4 4 4 4 5 5 6 6 6 6 8 8 7 7 6 5 3 3 3 3 3 2 3 3 3
15 17 29 26 9 5 3 2 2 4 2 2 3 3 2 1 1 3 3 8 2 3 5 3 3 4 5 4 4 3 3 5 4 4 5 6 6 7 8 6 7 7 6 4 5 4 3 4 2 3 3 3 2 3
25 26 27 18 6 3 3 2 2 4 2 2 2 3 3 3 4 3 4 3 3 3 2 4 5 5 4 4 5 5 4 3 3 2 5 5 3 4 6 6 5 5 3 2 2 3 3 1 1 3 3 4 3 3
20 15 18 8 3 3 3 3 2 2 3 3 2 3 0 1 2 3 3 4 2 3 3 5 8 5 6 4 5 5 5 4 5 4 5 4 3 4 4 4 5 3 3 3 4 4 4 4 3 4 3 2 2 3
7 14 3 5 3 2 2 2 3 4 3 3 3 3 2 1 2 3 2 1 3 5 5 4 3 4 5 7 6 8 10 8 7 4 3 3 4 3 4 3 2 3 4 4 4 4 4 4 4 4 4 3 2 2
14 5 3 2 2 2 2 4 3 5 4 6 3 3 2 2 3 4 3 5 5 4 5 8 10 6 9 11 6 8 8 9 7 7 8 7 6 4 4 4 4 4 4 4 3 3 3 5 4 4 4 3 3 2
9 3 5 6 4 5 4 3 3 4 3 5 5 4 3 3 2 2 4 4 4 4 7 13 9 8 6 5 6 7 8 7 8 5 5 5 5 5 5 5 4 5 4 2 3 3 3 4 5 5 5 4 4 4
6 6 6 5 4 5 4 4 3 4 4 4 3 2 4 4 4 4 4 3 2 4 7 5 7 10 11 10 7 9 6 8 9 10 8 7 4 2 2 3 4 4 4 4 3 3 3 4 5 5 5 5 8 7
4 4 5 5 3 5 6 5 5 5 4 2 3 2 2 2 1 6 3 4 5 4 5 7 8 7 8 9 8 5 5 5 5 6 8 7 7 6 6 4 4 4 6 4 5 6 6 6 7 8 6 7 7 7
4 4 3 0 4 4 3 3 3 4 5 6 4 4 4 5 8 4 3 2 1 1 1 1 2 4 4 4 4 4 4 5 6 4 1 5 5 6 4 5 7 4 6 8 7 7 9 9 8 8 6 4 7 8
3 4 6 5 3 2 5 3 5 6 5 4 5 7 8 9 6 3 1 0 1 1 2 1 1 2 3 4 4 2 1 2 3 3 2 2 2 0 2 2 2 7 5 6 7 6 7 8 8 9 9 8 7 4
2 3 5 2 2 2 4 5 6 3 4 6 7 5 5 2 0 1 0 1 2 1 1 2 1 1 1 2 3 2 2 3 6 5 5 4 2 3 2 2 3 3 3 5 5 5 7 7 8 9 9 6 4 4
3 2 4 3 5 4 3 1 1 1 1 2 2 2 1 2 2 1 1 1 1 0 2 1 1 2 2 2 1 1 1 2 2 3 3 3 4 2 3 3 4 4 4 6 7 7 9 7 8 4 5 5 4 4
3 3 3 2 2 1 1 2 1 1 2 2 2 3 2 2 3 2 2 2 1 1 1 0 1 1 2 2 0 1 2 2 2 1 1 2 3 3 3 4 4 4 5 6 6 5 6 4 5 7 7 7 7 7
2 3 4 3 2 2 2 1 1 1 0 2 1 2 1 3 2 2 2 1 1 2 2 2 1 2 2 2 3 3 3 1 0 1 1 1 2 2 4 4 4 5 6 7 6 5 6 7 7 7 7 8 8 8
3 3 3 3 2 1 1 3 4 1 3 2 1 1 3 3 4 3 2 1 1 1 1 2 2 1 1 2 2 0 1 0 0 0 2 4 6 5 3 4 4 5 8 7 6 7 8 10 8 8 8 8 8 8
Wind_Direction
239 240 228 223 226 219 218 218 230 220 232 173 174 170 167 166 151 116 120 352 115 98 334 227 208 140 100 126 138 219 75 327 50 158 160 183 183 215 161 177 172 160 183 193 151 238 268 176 96 164 213 259 242 209
237 239 229 222 242 233 222 222 238 227 218 175 172 172 167 165 157 121 99 319 93 81 187 323 8 25 55 159 132 45 159 182 174 136 143 132 155 135 152 224 118 223 184 189 188 211 248 213 208 222 167 222 242 212
235 232 238 223 234 241 239 220 244 226 206 167 171 170 164 162 158 118 124 153 70 87 12 51 53 338 28 31 183 120 304 123 75 196 155 149 185 132 169 230 204 250 165 200 101 229 235 248 259 249 205 224 239 232
234 226 235 252 253 249 231 241 238 213 186 167 166 167 160 159 136 113 121 132 89 100 115 266 345 11 328 351 45 101 123 88 107 58 81 102 166 175 197 220 186 194 145 189 251 279 273 263 234 236 249 239 246 219
239 222 237 264 266 244 248 249 210 192 172 166 166 166 161 158 133 93 86 36 126 129 150 222 301 316 334 0 104 80 104 95 53 43 75 208 214 114 340 48 239 185 185 176 235 224 201 235 237 212 223 232 229 201
228 223 254 259 247 260 247 186 189 175 168 165 164 163 156 147 136 136 59 318 131 117 102 126 289 4 15 55 110 117 95 81 89 105 23 298 310 53 224 242 230 209 210 211 247 234 208 243 223 242 218 212 217 205
219 243 262 259 260 226 174 172 178 161 161 160 160 154 147 144 142 146 173 164 150 97 86 60 10 328 339 63 34 56 25 97 115 146 185 201 207 34 315 253 153 235 245 248 239 257 284 240 236 235 229 238 232 237
222 261 270 235 209 166 166 170 163 158 157 152 148 140 136 122 106 60 33 104 102 86 72 122 262 27 356 77 70 9 74 26 26 174 47 204 102 122 249 236 250 250 243 255 255 230 229 256 260 239 227 230 233 244
231 271 232 207 152 159 156 159 146 147 138 132 120 109 98 72 105 130 120 85 69 110 130 118 138 193 174 90 123 58 78 94 328 191 228 129 196 224 227 209 210 225 215 225 250 264 240 227 238 233 235 236 234 250
224 311 143 144 131 136 137 141 126 122 115 109 99 75 98 180 128 127 21 34 29 352 56 102 95 123 138 93 62 79 30 153 238 245 102 181 247 242 235 224 215 222 220 220 230 258 253 244 221 239 230 237 238 240
129 4 127 106 116 122 120 120 118 113 110 78 89 92 113 102 79 77 102 107 127 39 162 149 142 131 276 125 132 125 141 158 255 269 164 249 259 237 232 236 237 233 227 237 242 256 241 208 200 225 248 240 239 241
129 110 120 124 118 114 121 118 119 109 81 118 104 81 85 75 69 95 91 102 132 192 159 136 174 138 152 120 112 138 170 150 245 120 134 259 256 244 270 260 255 240 237 245 241 240 234 233 222 230 243 252 245 245
128 113 124 130 126 122 116 108 107 118 113 101 66 82 100 95 115 149 174 220 167 144 157 156 134 119 91 79 91 158 184 224 97 185 234 234 259 271 229 258 277 268 252 250 261 226 235 247 253 212 240 244 251 247
129 138 129 119 116 110 118 125 120 111 71 70 92 103 138 192 201 166 135 133 149 136 151 144 118 118 122 98 140 161 207 129 222 234 249 263 233 266 305 233 254 278 295 279 276 275 258 253 267 279 246 289 267 260
131 133 129 125 122 127 131 82 77 56 81 90 101 121 184 128 62 113 107 98 113 147 139 104 61 98 146 131 181 145 165 232 221 233 221 247 297 293 289 287 271 280 281 265 261 255 251 254 258 281 279 282 274 278
133 124 140 132 133 136 105 63 37 65 60 64 57 89 63 79 52 79 102 109 131 143 90 74 132 133 178 143 159 198 191 220 235 223 224 242 316 306 293 278 250 270 278 285 282 251 241 197 218 234 191 3 339 252
118 36 140 144 131 106 85 63 38 47 71 53 55 50 96 76 121 139 131 133 154 152 164 140 156 182 119 136 195 192 209 215 214 259 249 232 265 273 276 271 268 270 284 294 267 220 197 128 137 167 276 57 9 87
82 140 140 136 115 73 47 42 77 70 75 81 98 200 6 68 98 119 138 147 146 191 130 174 120 123 165 184 229 230 222 230 230 237 251 251 239 244 252 262 278 271 277 264 234 195 156 170 210 227 150 136 91 89
140 143 144 139 95 93 80 67 84 106 104 140 122 132 127 143 168 129 145 176 116 118 104 94 132 184 210 208 207 209 220 208 228 256 249 258 241 251 272 267 274 278 263 216 187 199 190 197 217 186 169 161 159 165
139 142 141 120 72 73 78 55 12 94 156 197 105 141 147 171 159 130 131 136 126 116 147 197 213 218 192 202 188 206 222 196 170 285 289 293 242 255 266 266 265 264 229 158 120 114 126 108 135 182 188 183 159 180
130 148 133 110 64 51 94 129 109 144 134 171 178 123 85 64 122 162 172 141 133 200 213 214 224 225 211 217 201 199 226 176 207 179 269 279 258 236 271 260 254 211 208 199 193 195 184 203 195 178 169 191 179 154
121 121 89 40 79 64 92 182 133 147 122 146 106 120 139 197 226 224 119 110 214 226 196 187 206 207 233 235 228 208 226 205 218 196 236 238 272 272 270 234 209 233 217 212 190 195 202 191 169 165 156 180 152 131
96 65 62 87 115 139 240 132 137 158 140 174 117 144 200 202 210 132 208 210 233 226 198 219 234 219 228 243 225 233 217 212 226 228 236 227 228 220 228 242 213 219 235 235 195 175 184 161 153 144 134 136 132 111
80 100 153 168 163 172 167 159 154 145 123 164 163 187 182 157 139 201 233 219 226 205 205 230 227 236 236 219 222 232 229 200 225 231 221 207 232 247 192 224 222 218 203 162 152 147 147 158 141 149 154 147 154 153
131 171 161 159 177 142 143 126 148 164 166 171 146 145 167 163 199 233 222 259 216 215 215 205 206 218 230 240 239 240 205 197 216 228 240 200 203 104 225 227 240 233 164 145 153 156 160 148 159 159 165 163 166 170
139 168 160 148 151 137 161 141 150 154 139 126 192 156 135 162 203 254 235 220 215 205 198 204 208 223 234 230 244 234 225 188 190 218 246 184 192 194 212 187 221 260 195 166 139 161 167 168 169 169 178 176 161 152
124 153 173 45 125 122 89 87 123 132 157 170 159 142 149 196 227 244 257 224 222 99 176 189 220 233 248 262 249 233 209 187 190 210 228 191 196 193 170 183 207 227 157 169 167 165 171 176 180 182 170 151 174 175
167 145 147 150 116 141 142 131 145 179 171 166 124 176 185 200 224 226 176 116 107 333 249 200 201 253 267 265 259 263 357 83 81 77 61 40 41 122 186 171 155 144 143 162 163 152 161 170 170 168 168 174 179 166
144 150 108 96 109 146 191 167 194 202 147 167 176 190 222 221 189 179 270 358 330 314 355 348 308 342 346 355 9 2 144 156 155 157 197 231 318 265 138 131 117 102 116 118 108 133 154 158 160 165 169 167 144 114
147 121 94 115 143 188 219 150 168 223 24 128 111 73 19 309 258 282 267 13 63 258 291 292 338 354 324 335 308 9 13 86 92 137 168 221 234 188 145 134 133 128 125 126 117 107 92 93 99 86 104 104 115 121
92 83 82 71 104 108 66 115 95 87 45 69 14 118 220 277 303 264 189 191 203 290 208 61 50 52 345 339 54 57 36 15 46 56 97 117 128 141 140 128 123 124 133 133 131 125 123 106 121 129 129 131 136 136
88 119 138 119 101 94 23 64 81 98 313 93 84 65 17 29 299 281 269 146 200 243 230 193 160 272 274 257 254 247 215 248 329 310 162 128 118 124 128 124 124 131 130 125 119 121 132 132 132 132 138 137 136 136
89 80 63 92 104 173 265 85 28 55 27 24 18 195 202 180 237 251 304 312 244 271 322 311 319 240 235 244 188 46 14 70 60 129 143 135 133 126 118 114 115 119 121 118 117 127 125 124 125 127 123 124 127 127